sat.trackr.live / text

‹ back to catalog

ICEYE-X66

NORAD 66301 · 2025-248J

PAYLOAD ACTIVE UNKNOWN

§ Identity

Operator
Country
UAE
Launch date
2025-11-02
Launch site
AFETR
Launch vehicle
Mass (kg)
RCS (m²)

External: N2YO · Heavens-Above · Gunter

§ Orbital elements

Epoch: 2026-09-20T22:43:32.067552Z

Period
95.40 min
Inclination
45.4020°
Eccentricity
0.0005071
Mean motion
15.09497603 rev/d
Perigee alt
534.2 km
Apogee alt
541.2 km
Semi-major
6,915.9 km
B*
7.9664e-5
RAAN
348.8872°
Arg perigee
209.5688°
Mean anomaly
150.4908°
Rev number
4,997

§ Raw data

ICEYE-X661 66301U 25248J   26263.94689893  .00001044  00000+0  79664-4 0  99962 66301  45.4020 348.8872 0005071 209.5688 150.4908 15.09497603 49974

JSON: /api/v1/satellites/66301 · /tle

For live sub-satellite position, see the globe view (requires WebGL).

§ Visibility from observer

Set your observer location to see the next 7 days of passes ≥ 10°. The values pass through the URL so the page stays shareable.

No JS? Fill the form by hand. The geolocation button needs JavaScript.